Showing default

LEMUR 2 PETERG, 42841

Orbit data source: Space-Track

LEMUR 2 PETERG, 42841 is a payload satellite owned by Spire (US) in SSO that was launched on Fri, 14 Jul 2017 UTC via a SOYUZ-2-1A launch vehicle from the Tyuratam Missile And Space Complex (TTMTR). Payload-class satellites include a variety of spacecraft equipped with specific instruments for various scientific and technological missions. These include communications satellites like Starlink; space stations such as the ISS; scientific satellites like the Hubble; Earth observation satellites from companies like Planet Labs, Umbra, and HawkEye 360; GPS; miniature CubeSats for education and research; and military/defense satellites.

Loading next visibility...
Identifier
42841, 2017-042S
Orbit
SSO
Country
Flag of USUS
Related business
Manufacturer
Spire/Glasgow
Mission
Operational Commercial Com/MetRO
Bus & Motor
CUBESAT 3U, Unknown motor
Mass
4 kg wet, 4 kg dry
Launch date (UTC)
2017-07-14 (8 years ago)
Launch vehicle
SOYUZ-2-1A
Launch site
Tyuratam Missile And Space Complex (TTMTR)
Object type
Payload
Rocket body
Debris
Shape & HBR
Box, 0.5 m
Radar Cross Section
0.093 m², Small (<0.1 m²)

Expand to show TLE details & history
Last TLE update: 13 hours ago

TLE from 13 hours ago
0 LEMUR 2 PETERG
1 42841U 17042S   25308.73984131  .00018122  00000-0  76252-3 0  9996
2 42841  97.3927 130.1567 0005357  60.9175 299.2598 15.23425710454141
Epoch: 2025-11-04T17:45Z
TLE epoch observation values (Epoch: 2025-11-04T17:45:22.289Z)
Latitude
Longitude
179.59129°
Altitude
496.813 km
Speed
7.617 km/s
True Right ascension
08h 40m 37s
True Declination
0° 00' 00"
Sunlit
Object was in daylight at epoch
Visualization orbit readout
Latitude
Unknown
Longitude
Unknown
Altitude
Unknown
Speed
Unknown
Apparent Right ascension
Unknown
Apparent Declination
Unknown
Sunlit
N/A
Visualization observer readout
Local Sidereal Time
02:29:12
Azimuth
Unknown
Elevation
Unknown
Doppler factor
Unknown
Orbital elements
Apogee altitude
496.158 km
Perigee altitude
488.797 km
Semi-major axis
6,870.614 km
Eccentricity
0.00054
Inclination
97.3927°
RAAN
130.1567°
Arg. of periapsis
60.9175°
True anomaly
299.20623°
Mean anomaly
299.2598°
Eccentric anomaly
299.23302°
Mean motion
3.8111 °/min
Orbital period
94.46 mins
BSTAR
0.00076252
Loading maneuver chart data...
Computing Atmospheric mass density...

Documentation

Showing up to 5 results
|